Wind_Speed
27 27 27 27 27 28 29 29 29 28 27 26 26 26 25 25 25 24 24 25 24 23 23 24 25 25 26 27 28 28 29 29 30 32 33 35 36 38 39 40 41 42 43 44 45 46 46 47 47 47 48 48 48 49 49 48 48 48 48 47 46 46 45 43 42 40 39 37 36 35 34 32 31 31
27 27 27 26 26 27 28 29 29 29 28 27 27 26 26 26 25 25 25 26 23 20 20 23 25 27 28 30 31 30 31 32 33 34 36 38 39 40 41 42 43 44 44 45 46 46 47 47 48 48 48 49 49 50 50 50 50 50 50 50 50 50 49 49 48 47 46 45 43 42 41 39 38 36
26 26 26 26 26 26 27 28 28 29 28 28 27 27 26 26 25 24 25 25 23 20 21 23 25 27 29 31 32 32 33 34 35 37 38 40 41 42 42 43 44 44 45 45 45 46 46 46 47 47 47 48 48 49 49 49 50 50 50 51 51 51 51 51 51 51 51 50 50 49 48 47 46 44
25 25 25 25 25 25 26 27 28 28 28 28 27 27 26 25 24 24 24 24 22 21 22 24 26 29 31 32 33 34 35 36 37 38 39 40 40 41 41 42 42 43 43 43 43 43 43 43 43 43 44 44 44 45 45 46 46 46 47 47 47 48 48 49 49 50 50 51 51 52 51 51 51 50
23 23 23 24 24 24 25 26 27 27 27 27 26 26 25 24 24 23 23 24 23 23 23 24 27 29 32 33 34 35 35 36 36 37 37 38 38 38 39 39 39 39 39 39 39 39 39 39 39 39 39 40 40 40 41 41 41 42 42 42 43 43 44 44 45 45 46 46 47 48 49 49 50 50
21 21 21 22 22 22 23 24 26 26 26 26 25 24 23 23 23 22 23 23 23 23 23 24 27 30 32 33 34 34 34 33 33 34 34 34 35 35 35 35 35 35 35 35 35 35 35 35 35 36 36 36 36 36 37 37 37 37 37 38 38 38 39 39 40 40 40 41 42 42 43 44 44 45
19 19 19 20 20 20 21 22 24 25 25 25 24 23 22 22 21 21 22 23 23 22 22 25 27 29 31 32 32 31 30 30 30 30 30 30 30 30 31 31 31 31 31 31 31 31 31 31 32 32 32 33 33 34 34 34 34 34 34 34 34 34 34 34 35 35 35 35 36 37 38 38 39 39
16 16 17 18 18 18 18 20 22 23 23 23 22 21 20 20 20 20 21 22 23 24 24 26 28 29 30 30 29 28 27 27 26 26 26 26 26 26 27 27 27 26 26 27 27 27 27 28 28 29 29 30 30 31 31 31 31 31 31 31 31 31 31 31 31 31 31 31 31 32 32 33 33 33
14 15 16 16 16 16 17 18 20 21 22 22 21 20 19 18 18 18 19 21 22 24 26 27 28 29 29 28 26 25 24 23 23 22 22 22 22 23 23 23 23 23 23 23 23 24 24 24 25 26 27 27 27 28 28 29 29 30 30 29 29 29 29 30 30 30 30 30 29 29 29 29 29 29
12 14 15 16 16 16 16 16 18 19 20 20 19 18 17 16 16 17 18 20 21 23 25 27 28 28 27 25 23 21 20 20 19 19 18 18 18 18 19 19 19 19 20 20 20 20 21 21 22 23 24 24 25 25 25 26 27 28 28 28 28 28 28 29 29 30 30 29 29 29 29 29 28 28
13 13 15 16 16 16 16 15 16 17 18 18 17 16 15 14 14 15 17 18 20 22 24 26 27 27 26 23 20 19 17 16 16 15 15 15 14 14 15 15 15 15 15 16 17 17 18 19 19 20 20 21 22 22 23 24 25 25 26 27 27 28 28 28 28 29 29 29 29 29 28 29 29 28
13 14 14 15 16 17 16 15 14 15 15 15 15 14 13 12 12 13 15 17 19 20 22 25 26 26 24 21 18 16 14 13 12 12 11 11 11 11 11 11 11 11 12 12 13 13 14 15 16 16 17 17 18 19 20 21 22 23 24 25 26 26 27 27 28 28 28 28 28 28 28 28 28 28
14 14 14 14 14 15 15 14 13 13 13 13 13 13 12 10 9 9 12 15 17 19 21 23 25 25 22 19 16 14 12 11 9 8 8 8 8 8 8 8 8 8 8 9 10 10 11 11 12 13 14 15 16 17 18 19 19 21 22 23 24 24 25 26 26 26 27 26 27 27 27 27 27 27
14 14 15 15 14 14 13 12 11 11 11 11 11 11 10 9 7 5 7 11 15 17 19 21 23 24 22 18 15 13 11 9 7 6 5 4 4 4 5 5 6 6 6 7 7 8 9 10 11 12 12 13 14 15 16 17 18 19 20 21 22 22 23 24 24 25 25 25 25 25 25 25 25 25
15 14 14 15 16 16 15 14 12 10 9 8 8 7 7 7 5 3 1 6 11 14 17 19 21 23 22 19 16 13 11 9 7 5 4 2 1 1 2 3 4 5 6 6 6 7 9 9 10 11 12 13 14 15 16 17 18 19 19 20 21 21 22 22 23 23 23 24 24 24 23 23 23 23
14 14 14 14 15 16 17 17 16 13 9 6 5 4 4 3 2 2 2 3 7 11 15 17 20 22 23 21 17 14 12 10 9 8 7 6 5 5 4 5 5 6 7 7 7 7 9 11 11 11 12 14 15 16 17 17 18 19 20 20 21 21 21 21 21 21 21 22 22 22 22 21 21 20
13 14 15 14 15 16 18 18 18 16 13 9 5 1 1 2 2 3 4 5 7 9 12 16 19 21 23 22 19 17 14 13 11 10 10 9 9 9 9 9 9 9 10 11 11 11 11 13 14 14 14 14 15 17 18 18 19 20 20 20 20 20 20 20 20 20 20 20 20 20 20 20 20 19
11 13 15 15 16 18 19 19 18 17 16 13 10 7 4 3 4 6 7 7 8 9 11 14 17 20 22 22 21 19 17 16 15 14 14 13 13 13 14 13 13 13 13 14 15 15 15 16 16 17 17 17 16 17 18 19 19 19 19 18 19 19 20 20 19 19 19 18 18 18 18 19 19 18
11 12 14 15 17 19 21 21 20 19 17 16 13 11 9 7 7 7 8 9 10 11 12 14 16 19 21 23 23 23 22 20 19 18 18 18 17 17 18 19 18 18 17 16 17 18 20 20 21 21 21 20 19 18 19 20 19 19 18 17 18 18 19 19 19 19 18 18 17 17 17 17 17 17
13 14 14 14 16 18 19 20 21 22 20 18 17 14 12 10 10 10 12 11 10 11 13 15 16 18 20 22 24 25 26 25 25 24 24 24 23 21 22 23 24 23 23 21 20 20 22 24 25 26 26 25 24 21 20 20 20 19 18 17 18 18 18 18 19 19 18 17 17 16 16 16 16 17
16 18 18 16 16 16 18 19 21 22 22 21 20 19 17 15 13 12 14 14 14 13 13 14 16 18 20 21 23 24 26 27 27 27 27 28 28 27 26 26 27 27 28 28 25 22 22 24 26 27 28 28 28 25 23 21 21 20 19 19 19 19 19 19 19 19 19 18 17 17 16 16 16 16
20 21 21 19 18 18 18 19 21 23 23 22 21 22 22 21 18 16 16 16 16 16 16 16 16 17 19 20 22 23 25 26 28 29 29 29 30 30 29 29 29 29 30 31 31 28 25 25 26 27 27 28 29 29 28 26 24 23 22 22 21 21 21 20 20 20 20 20 19 18 17 17 17 17
22 24 23 22 22 22 22 23 24 25 24 23 22 22 24 24 24 22 21 20 20 19 18 18 18 17 18 19 21 22 24 26 28 29 30 30 30 31 31 31 31 30 29 30 33 33 32 31 30 30 30 28 28 29 31 31 29 28 27 25 25 25 24 23 22 22 21 21 20 19 19 18 18 19
27 29 30 29 28 27 26 28 28 28 27 27 26 25 26 27 27 27 26 26 25 25 24 22 21 20 19 20 20 22 23 25 27 29 30 31 31 32 32 33 33 33 31 30 31 33 35 36 35 35 35 33 29 28 30 32 33 32 31 28 28 28 29 28 26 25 23 22 22 22 21 20 19 20
32 33 35 37 35 32 31 32 32 31 30 30 31 30 30 31 30 29 29 29 29 30 30 29 28 26 24 23 22 23 23 24 25 27 29 30 31 31 31 32 32 33 33 32 31 32 34 37 38 38 38 38 35 32 31 32 34 35 34 32 29 29 30 30 30 29 28 26 25 25 24 22 21 21
40 40 40 42 41 38 36 36 36 35 34 34 35 35 35 35 34 33 32 32 32 32 34 34 34 33 31 29 27 26 26 25 26 27 28 30 30 30 30 31 32 32 32 32 32 31 31 34 36 38 39 40 39 37 35 33 34 35 36 35 33 30 29 29 30 31 31 30 28 28 27 25 24 23
49 49 49 49 47 44 42 41 40 39 39 39 40 40 40 40 39 39 38 36 35 35 35 37 38 38 37 36 34 32 30 29 29 29 29 30 31 32 32 32 33 33 33 33 33 31 30 32 34 36 38 39 40 40 39 36 35 34 35 36 35 33 31 30 30 31 32 32 32 31 30 28 27 25
55 56 55 55 53 50 48 46 45 44 44 44 45 45 46 45 45 45 44 43 41 40 39 39 40 40 40 40 40 38 36 34 33 33 33 33 34 34 34 34 34 34 35 36 36 34 32 32 33 34 35 37 38 40 40 39 38 35 34 34 35 34 33 32 31 32 33 34 34 34 33 31 30 28
63 62 61 59 58 56 54 52 50 49 49 49 50 51 51 50 50 50 49 48 47 46 45 43 43 43 43 43 43 43 42 40 39 38 38 38 37 37 37 37 36 36 36 37 38 38 36 36 35 35 35 35 36 38 40 40 40 38 35 33 33 34 34 34 34 35 35 36 36 36 35 35 34 32
70 69 67 66 64 62 60 58 56 55 54 54 55 56 56 55 54 53 52 51 50 50 50 49 48 47 47 47 47 46 46 46 45 44 44 43 43 42 42 42 42 41 40 39 39 39 39 39 38 39 38 37 36 37 39 41 42 40 37 35 33 33 34 35 36 36 37 38 38 38 37 37 37 36
74 74 73 71 69 67 65 62 61 61 60 60 60 60 60 60 58 57 56 55 54 53 53 54 54 53 52 51 50 50 50 50 50 50 50 49 49 49 49 49 49 48 46 45 43 43 42 41 40 41 41 42 41 40 40 42 43 42 40 39 37 35 35 36 37 37 37 38 39 39 40 40 39 39
78 78 77 75 73 71 69 67 66 66 67 67 66 65 65 64 63 61 59 59 58 57 57 57 57 57 57 56 55 55 54 54 54 53 54 54 54 54 54 54 54 53 51 50 48 47 47 46 44 43 43 44 45 45 44 45 45 44 43 43 43 40 37 38 39 38 37 37 39 40 41 42 42 42
82 81 80 79 77 76 74 73 72 72 73 74 73 71 70 69 67 66 64 63 62 62 61 60 60 60 60 60 60 60 60 59 58 58 58 58 58 59 59 58 58 57 56 54 53 52 51 51 50 48 47 46 46 47 47 48 49 48 47 47 47 45 41 39 40 40 39 38 38 39 41 43 45 44
86 85 84 83 81 80 79 78 78 78 79 80 79 77 75 73 72 70 69 67 66 65 64 64 63 63 62 62 63 64 64 64 63 63 62 62 61 61 61 61 61 61 60 59 57 56 55 54 54 53 52 50 49 49 49 50 52 52 52 51 50 49 46 43 41 40 41 42 41 40 40 42 45 46
90 89 88 87 85 84 84 84 84 84 84 85 84 82 80 78 76 74 73 71 70 69 68 67 67 67 66 65 65 66 67 67 68 67 66 66 65 64 64 63 64 64 64 63 62 60 59 58 58 57 56 55 54 53 52 52 52 54 55 55 54 53 51 48 44 41 40 42 44 44 43 43 44 46
94 94 93 91 90 89 89 89 89 89 89 89 88 87 84 82 80 78 76 75 74 73 72 71 71 70 70 70 69 69 69 70 70 71 71 70 69 69 68 67 66 66 67 67 67 65 63 62 61 60 60 59 58 59 58 56 54 55 57 58 58 57 55 53 49 45 41 40 43 47 47 47 46 46
98 97 97 96 95 94 94 94 93 93 93 93 92 90 88 86 84 82 80 79 78 77 77 76 76 74 74 74 74 73 73 73 73 74 74 74 74 73 73 72 71 70 70 70 70 69 68 67 65 64 63 62 61 62 63 61 59 58 58 59 60 60 59 57 55 51 46 43 45 48 49 50 50 49
101 100 100 99 99 98 98 98 97 96 96 95 94 93 91 90 88 86 85 84 83 82 82 82 81 80 79 78 78 78 77 77 77 77 77 77 77 77 77 77 76 75 74 74 74 73 72 71 70 68 66 65 64 64 65 65 64 63 62 61 61 62 62 60 59 56 53 50 50 50 51 52 53 52
103 103 103 102 102 102 101 101 100 100 99 98 97 96 95 94 93 91 90 89 88 87 87 87 86 85 85 84 83 82 82 82 82 81 81 80 80 80 81 81 80 80 79 78 78 78 77 76 74 73 71 69 68 67 67 67 68 68 67 64 63 63 64 63 62 61 60 58 55 52 53 54 54 53
106 106 106 106 105 105 104 104 103 103 102 102 101 100 99 99 98 97 96 95 94 93 92 92 91 91 90 90 89 88 87 86 86 86 85 85 84 83 83 83 84 83 83 82 81 82 81 80 79 77 76 75 73 72 70 68 69 72 72 69 67 66 66 66 65 64 65 65 61 58 58 59 57 56
110 110 110 109 109 108 108 107 107 107 106 106 105 104 104 103 102 102 101 100 99 98 97 96 96 95 95 95 94 93 92 91 91 90 90 89 88 87 87 86 86 86 86 86 85 85 85 84 83 81 80 79 78 76 74 72 72 73 75 74 72 70 69 68 68 67 67 68 66 64 64 64 62 60
114 113 113 113 112 112 111 111 111 110 110 109 109 108 108 107 106 106 105 105 104 103 103 102 101 100 99 99 98 98 97 96 95 94 94 93 92 91 91 90 89 89 89 89 88 88 88 88 87 85 84 83 82 80 79 77 75 75 77 77 76 74 72 71 71 70 70 70 69 68 69 70 67 65
117 117 117 116 116 115 115 115 114 114 113 113 113 112 112 111 111 110 110 109 108 108 107 106 105 104 103 103 102 101 101 100 99 98 97 97 96 95 94 93 92 91 91 91 91 91 91 91 90 89 87 86 85 84 82 81 80 79 79 80 80 79 77 75 74 73 72 73 72 71 71 72 71 70
120 119 119 119 119 118 118 118 118 117 117 116 116 116 115 115 115 114 113 113 112 112 111 110 109 108 107 106 105 105 104 103 102 101 100 100 99 98 97 96 95 94 94 94 93 93 94 94 94 93 91 90 89 87 86 85 83 82 82 82 83 83 82 80 78 76 75 75 76 76 75 74 73 73
120 120 120 120 120 120 120 120 119 119 119 119 118 118 118 117 117 117 116 116 115 114 113 113 112 111 110 109 108 107 106 105 105 104 103 102 102 101 100 99 98 97 97 96 96 95 95 96 96 96 95 94 92 91 90 88 87 86 85 85 85 86 86 85 83 82 79 78 78 79 79 78 77 76
Wind_Direction
53 52 53 54 55 57 58 60 61 62 62 64 65 67 67 68 68 68 66 64 59 58 61 67 74 78 79 83 85 84 83 84 83 83 84 84 84 84 83 82 82 81 81 81 81 80 80 80 80 80 79 79 79 78 78 77 77 76 76 76 75 75 75 75 75 75 76 77 77 78 79 80 81 82
54 52 51 52 52 54 57 59 62 64 65 66 66 66 66 67 69 69 69 70 68 65 67 73 79 83 86 89 90 90 90 90 89 89 89 88 88 87 86 85 84 84 83 82 82 82 81 81 81 81 80 80 80 80 79 79 78 78 77 77 77 76 76 76 75 75 76 76 77 77 77 78 79 80
53 53 51 51 51 52 54 57 61 64 65 66 66 66 67 67 69 70 72 75 78 77 78 82 86 89 92 95 96 97 97 95 95 94 93 92 91 89 88 87 86 86 84 83 83 82 82 81 81 81 80 80 80 79 79 79 78 78 78 78 77 77 77 77 76 76 76 76 76 77 77 77 78 78
51 51 50 50 50 50 51 53 58 62 64 65 65 65 67 68 70 72 75 79 84 85 86 89 92 96 99 101 101 102 101 100 99 98 97 95 93 92 91 90 89 87 86 85 83 82 82 81 80 80 79 79 79 78 78 78 78 77 77 77 77 77 77 77 76 76 76 76 76 77 77 77 77 77
48 49 48 48 48 47 49 51 55 60 63 65 66 66 68 70 72 75 79 83 87 92 94 96 99 103 105 106 106 106 104 103 102 100 99 97 96 95 93 93 92 90 89 88 86 85 83 82 81 80 79 79 78 78 77 77 77 77 77 76 77 77 76 76 76 77 77 76 76 77 77 77 77 77
46 47 47 46 45 45 45 48 53 59 64 67 68 69 69 72 76 79 84 88 92 95 100 104 107 109 111 111 110 109 107 105 103 102 100 98 97 97 96 95 94 93 91 90 88 85 83 82 80 79 79 78 77 76 76 76 76 76 76 76 76 76 76 76 76 76 76 76 76 76 77 77 77 77
43 44 45 45 44 42 41 43 49 56 62 66 68 70 72 74 80 85 89 96 102 106 109 113 115 116 117 116 114 112 109 107 104 102 102 100 98 97 97 96 95 92 89 88 86 84 82 80 78 76 75 73 72 72 72 72 72 72 72 72 72 72 73 73 72 72 73 74 74 74 74 74 75 76
39 39 41 43 44 42 39 39 43 51 59 64 67 70 74 78 84 91 97 102 109 114 118 122 123 122 122 121 118 115 112 109 106 103 101 100 97 96 96 95 93 89 85 84 83 81 79 76 73 71 69 67 66 65 65 64 64 64 63 64 64 64 65 65 65 65 67 69 71 71 71 71 71 72
35 34 35 39 42 43 40 39 41 46 53 60 65 69 75 82 89 97 104 110 116 120 125 129 129 129 128 126 123 120 116 113 109 105 101 99 96 95 93 91 88 85 81 79 77 76 73 70 67 65 63 62 60 59 57 56 55 54 54 54 54 54 54 53 53 53 55 58 60 61 62 63 65 66
31 31 30 33 37 41 41 40 40 43 48 56 61 67 74 83 93 102 110 117 122 127 132 135 136 136 134 132 127 124 122 118 113 108 104 100 96 93 90 86 84 80 77 74 72 69 67 65 63 60 58 56 55 53 51 50 48 47 46 45 45 44 44 43 42 41 42 43 44 45 46 48 50 52
28 28 28 28 31 36 40 41 40 41 44 50 57 64 72 82 95 107 116 123 129 134 138 142 143 142 141 138 134 130 127 124 118 111 107 103 97 91 87 84 80 76 72 68 65 62 59 57 55 53 52 51 49 47 45 43 41 39 38 37 36 35 34 33 32 32 32 32 32 33 34 35 36 37
28 26 25 25 26 30 34 39 43 45 45 47 52 58 68 81 97 113 125 133 138 142 147 150 151 150 148 146 144 139 134 130 124 115 109 105 98 91 84 78 74 70 66 61 57 53 51 49 47 44 43 43 41 39 37 36 34 32 30 29 28 26 25 24 23 23 23 23 24 24 24 25 26 27
25 24 23 22 24 25 28 33 42 49 50 48 48 50 55 67 86 113 132 142 148 152 155 158 160 159 157 155 155 154 149 142 135 126 116 105 95 85 75 67 60 56 52 48 43 40 36 35 33 32 32 32 32 29 27 25 25 23 22 20 19 18 17 16 16 16 15 15 16 16 16 16 17 18
16 20 19 16 15 16 18 25 37 51 57 54 50 48 48 50 57 91 135 151 158 161 164 167 169 170 168 167 168 168 166 163 159 152 139 121 95 74 57 44 36 32 31 28 24 22 23 22 20 20 20 18 17 17 15 13 12 12 11 10 9 8 7 8 8 8 9 9 9 9 9 9 9 10
2 7 11 9 5 3 2 6 17 37 56 64 61 56 51 47 43 41 119 168 172 174 175 176 179 180 181 183 184 184 186 188 189 192 192 197 206 347 355 356 358 360 2 2 357 357 1 5 6 5 3 2 1 1 1 0 359 359 358 358 357 356 357 358 359 1 1 2 2 2 2 3 3 3
347 351 356 358 356 353 351 352 357 6 21 44 70 82 80 66 46 1 302 234 201 192 189 189 189 190 192 195 198 200 205 209 213 218 225 236 248 264 280 295 306 316 325 331 330 325 329 337 343 344 345 346 346 347 349 349 348 349 348 347 347 347 347 348 350 352 353 354 355 355 355 355 355 355
337 339 340 341 343 342 342 343 345 347 351 356 3 27 145 160 181 211 241 250 241 223 211 205 203 202 203 205 209 213 218 223 229 233 238 245 255 265 274 282 289 294 300 309 316 317 314 319 327 333 335 335 335 335 337 340 340 340 341 341 340 341 341 342 344 345 346 347 347 347 346 346 345 345
327 331 330 329 329 330 331 334 334 334 336 340 340 333 310 256 224 217 217 224 235 240 236 228 222 217 216 217 220 224 229 233 238 243 246 249 254 263 272 279 284 288 290 292 300 309 313 313 315 321 326 328 328 327 328 331 333 334 335 336 336 336 336 337 338 339 339 338 339 338 338 337 336 335
311 316 319 319 320 320 322 324 324 323 324 327 329 328 320 303 281 260 244 228 221 225 233 239 239 235 231 231 232 235 239 242 247 251 255 258 259 261 267 274 281 286 290 288 286 292 301 307 309 310 314 318 321 323 323 324 326 328 329 329 330 330 330 330 330 331 331 330 330 329 328 327 326 324
301 305 307 307 308 310 314 318 318 316 315 315 318 319 317 311 300 289 281 270 250 232 226 229 235 240 242 243 244 246 249 251 254 257 260 264 266 266 267 272 278 284 289 292 289 285 287 294 300 303 306 309 312 315 318 319 320 321 321 321 322 322 322 323 322 321 320 319 318 318 317 316 315 313
294 298 300 297 293 298 305 308 311 309 306 306 310 311 311 310 305 297 294 292 285 272 257 244 238 239 241 245 248 252 256 260 263 266 267 269 272 273 272 273 276 280 285 290 293 292 288 287 290 294 298 301 305 308 312 314 314 314 313 314 314 314 314 314 314 313 311 309 307 306 304 303 301 299
293 293 294 291 286 286 292 296 302 302 298 297 301 304 304 304 302 298 296 296 295 291 285 277 267 259 256 254 253 254 256 260 264 267 269 271 273 276 276 275 275 276 278 282 288 293 294 291 289 290 291 293 295 299 304 308 309 308 308 309 308 308 307 306 305 304 303 301 299 298 297 295 292 289
287 287 288 287 285 285 284 288 296 298 293 289 291 296 300 299 296 294 292 291 292 291 289 287 283 280 276 273 272 270 268 267 267 269 269 270 271 272 273 274 274 274 272 273 279 286 290 291 291 291 291 290 290 291 295 299 302 303 304 305 306 305 304 302 300 297 295 294 293 293 292 290 288 286
282 284 287 288 287 284 280 283 289 292 291 287 283 284 291 294 292 291 289 288 288 287 287 287 286 285 282 280 280 280 279 279 278 277 276 275 275 275 275 275 275 276 275 273 274 279 283 286 287 289 290 291 291 290 291 294 296 298 299 301 302 302 302 301 298 295 291 289 289 289 288 285 282 282
277 280 285 288 287 284 280 281 284 283 284 284 280 276 280 285 287 287 285 284 284 284 284 284 284 283 282 280 278 278 279 280 282 282 282 281 279 279 280 279 278 278 279 280 279 278 280 283 285 286 287 289 290 291 291 293 294 295 297 298 298 298 298 298 296 293 290 287 285 285 285 281 278 276
274 277 281 285 286 284 281 281 282 279 278 279 279 277 277 279 283 283 282 281 280 280 280 281 280 280 280 279 278 277 276 276 277 279 281 282 282 281 280 281 280 279 279 280 281 281 280 281 282 283 284 286 287 289 289 290 291 293 295 296 297 295 293 292 291 290 288 286 283 282 282 279 276 274
273 276 279 282 283 283 281 280 279 278 276 276 278 280 280 279 280 281 281 280 278 276 276 277 277 277 277 277 277 277 276 276 276 276 276 277 280 281 281 283 284 284 283 283 284 285 283 280 279 279 280 282 285 287 288 288 288 289 290 292 293 293 291 289 287 286 284 283 281 281 280 278 276 274
271 274 277 279 280 280 280 279 276 275 275 275 277 280 281 281 280 280 280 280 278 276 274 274 274 274 274 275 275 275 276 276 276 277 277 277 278 280 281 283 284 286 288 288 288 289 289 287 283 280 278 279 281 284 286 287 287 286 286 286 288 289 289 289 287 285 282 279 279 279 279 278 276 275
272 273 275 276 277 277 278 277 274 273 274 276 277 278 279 280 279 278 278 278 278 278 276 274 272 271 271 271 272 273 274 274 274 275 277 278 278 279 280 281 282 283 285 286 288 289 290 290 289 286 282 279 278 279 281 283 283 283 282 281 282 283 285 287 288 287 284 279 276 276 277 278 277 276
272 273 274 275 275 275 275 275 272 271 273 276 277 278 278 278 278 277 276 276 276 276 276 275 273 271 270 269 269 269 270 271 271 273 274 275 276 277 278 279 280 280 281 282 284 285 287 288 289 289 287 285 282 280 279 279 279 280 280 278 276 276 277 280 283 285 285 282 277 275 275 275 275 275
270 271 273 274 274 273 273 272 271 270 272 275 277 278 278 277 277 276 275 274 274 274 273 274 274 273 272 270 269 268 268 268 268 269 270 271 272 274 275 276 277 278 278 279 279 280 282 283 285 287 287 287 285 283 282 280 279 278 278 277 274 272 272 274 275 278 280 281 279 277 275 274 274 273
269 270 271 273 273 272 271 271 270 270 272 274 277 277 277 277 276 275 273 272 273 273 273 272 271 272 272 272 271 270 269 268 268 267 268 268 269 270 272 273 274 275 275 276 276 277 277 279 280 282 284 285 285 284 282 282 280 279 278 278 276 274 272 270 271 272 274 276 278 277 276 274 273 271
269 269 270 271 271 271 270 270 270 271 272 274 276 276 276 276 275 274 273 272 271 271 272 271 270 269 269 270 271 271 271 270 269 268 268 268 268 269 270 271 272 273 273 274 274 274 274 275 275 276 278 280 282 282 281 281 280 279 279 278 278 277 274 271 270 271 271 272 274 274 274 273 272 271
268 268 269 270 270 269 269 269 270 271 272 273 275 276 276 275 274 273 272 272 271 270 270 270 269 269 268 268 268 269 270 270 270 269 268 268 268 269 270 271 272 273 273 274 273 273 272 272 272 273 273 275 277 278 279 279 279 279 279 278 278 277 275 274 272 272 272 272 272 270 269 270 270 270
267 268 268 269 268 267 268 268 270 271 272 273 274 275 275 275 274 273 272 271 270 270 269 268 268 268 268 268 268 268 268 268 269 269 269 268 268 268 269 270 271 272 273 274 274 274 273 272 272 271 271 272 273 274 275 275 276 277 277 277 277 277 276 275 275 275 276 275 273 270 268 266 266 266
266 267 267 267 267 267 267 268 269 270 271 272 273 274 274 274 273 272 271 271 270 269 269 268 268 267 268 268 269 269 268 268 268 268 268 268 268 269 269 270 270 271 272 273 274 274 274 273 272 271 271 271 272 273 272 272 272 274 274 274 275 275 275 275 275 274 274 274 274 272 269 266 265 264
265 265 266 266 266 267 267 268 269 269 270 271 272 272 273 273 272 272 271 270 270 269 269 268 268 268 268 268 268 268 269 269 269 268 268 268 268 269 269 270 270 271 271 272 272 273 274 274 273 272 272 271 272 273 273 271 270 269 270 271 272 272 273 274 274 273 270 269 271 274 273 270 267 264
264 265 265 265 266 267 267 268 268 268 269 270 270 271 271 271 271 271 271 270 270 270 269 269 269 269 268 268 268 268 268 268 269 269 269 269 268 268 269 269 270 270 271 271 272 272 273 273 274 273 273 272 271 272 274 274 272 269 267 267 269 269 269 270 271 271 269 266 267 271 273 273 271 268
264 264 265 265 266 266 267 267 268 268 269 269 270 270 270 271 271 271 271 270 270 270 270 270 270 270 269 269 269 268 268 268 268 268 268 268 268 268 268 268 269 269 270 270 271 271 272 272 273 273 273 273 272 272 272 274 275 273 269 266 266 266 266 265 266 267 267 266 265 266 268 269 270 270
264 264 265 265 266 266 267 267 267 268 268 269 269 270 270 270 270 270 270 270 270 270 270 270 270 270 270 270 270 269 269 269 268 268 268 268 268 268 267 267 267 267 268 268 269 270 270 271 271 272 272 273 272 272 272 272 274 275 273 270 267 265 265 264 263 262 264 264 264 263 263 263 265 267
263 264 264 265 265 266 266 267 267 268 268 269 269 269 270 270 270 271 271 270 270 270 270 270 270 270 270 270 270 270 270 269 269 269 268 268 268 268 267 267 266 266 266 266 267 267 268 269 269 270 270 271 271 271 271 271 272 273 274 274 271 268 265 264 262 261 260 261 262 261 261 261 262 263
262 263 264 264 265 265 266 266 267 267 268 268 269 269 269 270 270 270 270 271 271 271 271 270 270 270 270 270 270 270 270 270 269 269 269 268 268 268 268 267 267 266 265 265 265 265 266 267 267 268 268 269 269 270 270 270 271 271 272 274 273 271 268 266 264 262 260 259 259 260 260 261 261 261
262 262 263 264 264 265 265 266 266 267 267 268 268 268 269 269 269 270 270 270 270 270 270 270 270 270 270 270 270 270 270 270 270 270 270 269 269 268 268 268 267 267 266 265 264 264 264 265 266 266 267 267 267 268 268 269 269 270 270 271 272 272 271 268 266 264 262 260 259 257 258 259 260 260
262 262 262 263 263 264 264 265 265 266 266 267 267 268 268 269 269 269 269 269 270 270 270 270 270 270 270 270 270 270 270 270 270 270 269 269 269 269 269 268 268 267 266 266 265 264 264 264 264 265 266 266 266 267 267 267 267 268 269 269 270 271 272 270 268 266 264 263 261 259 256 256 257 258
262 262 262 263 263 263 264 264 265 265 266 266 267 267 267 268 268 268 269 269 269 269 269 270 270 270 270 269 269 269 269 269 269 269 269 269 269 269 269 268 268 267 266 266 265 264 263 263 264 264 265 265 266 266 266 266 266 266 267 267 268 269 270 271 270 268 266 264 263 261 259 257 255 255
Height
11013 11012 11011 11010 11009 11008 11007 11006 11005 11004 11004 11003 11002 11001 11000 11000 10999 10999 10998 10998 10997 10996 10995 10994 10992 10991 10991 10990 10990 10990 10989 10987 10986 10984 10984 10982 10981 10980 10979 10978 10977 10976 10975 10974 10973 10973 10972 10971 10970 10970 10969 10968 10967 10966 10964 10963 10962 10961 10959 10958 10956 10955 10953 10952 10951 10950 10948 10947 10946 10944 10943 10942 10941 10939
11015 11014 11013 11012 11011 11010 11009 11008 11007 11006 11006 11005 11004 11004 11003 11002 11002 11001 11001 11000 11000 11000 10999 10998 10996 10994 10994 10993 10993 10992 10992 10991 10990 10989 10988 10987 10986 10985 10984 10983 10982 10981 10981 10980 10979 10978 10978 10977 10976 10976 10975 10974 10973 10971 10970 10969 10968 10967 10965 10964 10963 10961 10960 10959 10957 10956 10954 10953 10951 10950 10948 10947 10946 10944
11017 11016 11014 11013 11012 11011 11011 11010 11009 11008 11007 11007 11006 11005 11005 11004 11004 11004 11003 11003 11003 11003 11003 11001 11000 10998 10997 10997 10996 10996 10996 10995 10994 10993 10992 10991 10990 10989 10989 10988 10987 10987 10986 10986 10985 10984 10984 10983 10983 10982 10981 10980 10979 10977 10976 10975 10974 10973 10972 10970 10969 10968 10966 10965 10964 10963 10961 10959 10957 10956 10955 10953 10952 10950
11019 11018 11016 11015 11014 11013 11012 11011 11010 11010 11009 11008 11008 11007 11007 11007 11006 11006 11006 11006 11006 11006 11006 11004 11003 11002 11002 11001 11001 11001 11000 10999 10998 10997 10997 10996 10995 10994 10994 10993 10993 10992 10992 10991 10991 10990 10990 10989 10989 10988 10987 10986 10985 10984 10982 10981 10980 10979 10978 10977 10976 10974 10973 10972 10971 10970 10968 10967 10965 10963 10962 10960 10959 10958
11021 11020 11019 11017 11016 11015 11014 11013 11012 11011 11011 11010 11010 11009 11009 11009 11009 11008 11008 11008 11008 11009 11009 11008 11007 11006 11006 11006 11006 11005 11004 11004 11003 11002 11001 11000 11000 10999 10998 10998 10997 10997 10996 10996 10996 10995 10995 10994 10994 10993 10992 10991 10991 10989 10988 10987 10986 10985 10984 10983 10982 10981 10980 10978 10977 10976 10975 10974 10972 10970 10969 10967 10966 10965
11023 11022 11021 11019 11018 11017 11016 11015 11014 11013 11013 11012 11012 11011 11011 11011 11011 11010 11010 11010 11010 11010 11011 11011 11011 11010 11010 11010 11010 11009 11009 11008 11007 11007 11006 11005 11004 11003 11002 11002 11001 11001 11001 11000 11000 10999 10999 10999 10998 10997 10997 10996 10995 10994 10993 10992 10992 10991 10990 10989 10988 10987 10986 10984 10983 10982 10981 10980 10979 10977 10976 10974 10973 10972
11024 11023 11022 11021 11020 11019 11018 11017 11016 11015 11015 11014 11014 11014 11013 11013 11013 11013 11013 11013 11013 11013 11014 11014 11014 11013 11013 11013 11013 11013 11013 11012 11011 11011 11010 11009 11008 11007 11007 11006 11005 11005 11004 11004 11003 11003 11003 11002 11002 11001 11001 11000 10999 10998 10998 10997 10996 10995 10994 10993 10993 10992 10991 10990 10989 10988 10987 10986 10985 10983 10982 10981 10979 10978
11025 11024 11024 11023 11022 11021 11020 11019 11018 11017 11017 11016 11016 11016 11016 11015 11015 11015 11015 11015 11016 11016 11016 11017 11017 11016 11016 11016 11016 11016 11016 11015 11015 11014 11013 11013 11012 11011 11011 11010 11009 11008 11008 11007 11007 11006 11006 11006 11005 11004 11004 11003 11003 11002 11001 11000 11000 10999 10998 10997 10996 10996 10995 10994 10993 10992 10991 10990 10989 10988 10987 10986 10985 10984
11026 11025 11025 11024 11023 11022 11022 11021 11020 11019 11019 11019 11019 11018 11018 11018 11018 11018 11018 11018 11018 11019 11019 11019 11019 11019 11019 11018 11018 11018 11018 11017 11017 11017 11016 11016 11015 11014 11014 11013 11012 11012 11011 11010 11010 11009 11009 11008 11008 11007 11007 11006 11005 11005 11004 11004 11003 11002 11001 11001 11000 10999 10998 10997 10997 10996 10995 10994 10993 10992 10991 10990 10989 10988
11026 11026 11026 11025 11025 11024 11023 11023 11022 11022 11021 11021 11021 11021 11021 11021 11021 11021 11021 11021 11021 11021 11021 11021 11021 11021 11021 11021 11020 11020 11020 11020 11019 11019 11019 11018 11018 11017 11017 11016 11015 11015 11014 11013 11013 11012 11012 11011 11011 11010 11009 11009 11008 11007 11007 11006 11006 11005 11004 11003 11003 11002 11001 11000 10999 10999 10998 10997 10996 10995 10994 10993 10992 10991
11027 11027 11026 11026 11026 11025 11025 11024 11024 11024 11024 11023 11023 11023 11023 11023 11023 11023 11023 11023 11023 11023 11023 11023 11023 11023 11023 11023 11022 11022 11022 11022 11021 11021 11021 11020 11020 11019 11019 11018 11018 11017 11017 11016 11016 11015 11015 11014 11013 11013 11012 11011 11011 11010 11009 11009 11008 11008 11007 11006 11005 11004 11004 11003 11002 11001 11000 10999 10998 10997 10996 10996 10995 10994
11028 11028 11028 11027 11027 11027 11026 11026 11025 11025 11025 11025 11025 11025 11025 11025 11024 11024 11024 11025 11025 11025 11025 11025 11025 11025 11024 11024 11024 11024 11024 11024 11023 11023 11023 11022 11022 11021 11021 11020 11020 11020 11019 11019 11018 11018 11017 11016 11016 11015 11014 11014 11013 11012 11012 11011 11010 11010 11009 11008 11008 11007 11006 11005 11005 11004 11003 11002 11001 11000 10999 10998 10997 10996
11029 11029 11029 11028 11028 11027 11027 11027 11026 11026 11026 11026 11027 11027 11027 11027 11027 11026 11026 11026 11026 11026 11026 11026 11026 11026 11026 11025 11025 11025 11025 11025 11024 11024 11024 11024 11023 11023 11022 11022 11022 11021 11021 11020 11020 11019 11019 11018 11018 11017 11016 11016 11015 11014 11014 11013 11012 11012 11011 11010 11010 11009 11008 11007 11007 11006 11005 11004 11003 11002 11001 11000 10999 10998
11030 11030 11029 11029 11029 11028 11028 11028 11027 11027 11027 11027 11028 11028 11028 11029 11029 11029 11028 11028 11028 11028 11028 11028 11028 11027 11027 11026 11026 11026 11026 11025 11025 11025 11025 11025 11024 11024 11024 11023 11023 11023 11022 11022 11021 11021 11020 11020 11019 11018 11018 11017 11017 11016 11016 11015 11014 11014 11013 11012 11011 11011 11010 11009 11009 11008 11007 11006 11005 11004 11004 11003 11001 11001
11031 11031 11030 11030 11029 11029 11029 11028 11028 11028 11028 11028 11028 11028 11029 11029 11030 11030 11030 11030 11030 11030 11029 11029 11029 11029 11028 11028 11027 11027 11027 11026 11026 11026 11025 11025 11025 11025 11024 11024 11024 11023 11023 11023 11022 11021 11021 11020 11020 11019 11019 11018 11018 11017 11017 11016 11016 11015 11014 11013 11013 11012 11011 11011 11010 11009 11009 11008 11007 11006 11005 11004 11004 11002
11031 11031 11031 11030 11030 11029 11029 11029 11029 11029 11029 11029 11028 11028 11028 11029 11029 11030 11030 11031 11031 11031 11031 11031 11030 11030 11029 11029 11028 11028 11027 11027 11026 11026 11026 11026 11025 11025 11025 11024 11024 11024 11023 11023 11023 11022 11021 11021 11020 11020 11020 11019 11019 11018 11018 11017 11017 11016 11015 11014 11014 11013 11012 11012 11011 11010 11010 11009 11008 11007 11006 11006 11005 11004
11031 11031 11031 11031 11030 11029 11029 11029 11029 11029 11029 11029 11029 11028 11028 11028 11028 11029 11029 11030 11031 11031 11031 11031 11031 11030 11030 11029 11029 11028 11028 11027 11027 11026 11026 11026 11025 11025 11025 11024 11024 11024 11024 11023 11022 11022 11022 11021 11020 11020 11020 11020 11019 11019 11018 11018 11017 11017 11016 11015 11014 11013 11013 11012 11011 11011 11010 11010 11009 11008 11007 11006 11005 11004
11031 11031 11031 11030 11030 11029 11029 11028 11028 11028 11028 11029 11029 11029 11028 11028 11027 11027 11027 11028 11029 11030 11031 11031 11031 11031 11030 11030 11029 11029 11028 11027 11027 11026 11026 11026 11025 11025 11024 11024 11024 11024 11024 11023 11022 11022 11021 11021 11021 11020 11019 11019 11019 11019 11018 11018 11017 11017 11016 11015 11015 11014 11013 11012 11011 11011 11010 11010 11009 11008 11007 11006 11005 11004
11029 11030 11030 11030 11030 11029 11029 11028 11028 11028 11028 11028 11028 11028 11028 11028 11027 11026 11026 11026 11027 11027 11028 11029 11029 11030 11030 11029 11029 11028 11028 11027 11027 11026 11026 11025 11025 11024 11024 11023 11023 11022 11022 11023 11023 11022 11021 11020 11019 11019 11019 11018 11018 11018 11018 11017 11017 11016 11015 11015 11014 11014 11013 11012 11011 11010 11010 11009 11008 11008 11007 11006 11005 11003
11028 11028 11029 11029 11029 11028 11028 11028 11028 11027 11027 11027 11027 11027 11027 11027 11027 11026 11026 11026 11026 11026 11025 11026 11026 11027 11027 11028 11028 11027 11027 11026 11026 11025 11025 11024 11023 11023 11023 11022 11021 11021 11021 11020 11021 11022 11021 11020 11018 11018 11017 11016 11016 11016 11016 11016 11015 11015 11014 11014 11013 11013 11012 11012 11011 11010 11009 11008 11008 11007 11006 11005 11004 11003
11025 11026 11026 11027 11027 11027 11027 11027 11027 11026 11026 11026 11025 11025 11025 11026 11026 11026 11025 11025 11025 11025 11024 11024 11024 11024 11024 11024 11025 11025 11024 11024 11023 11023 11023 11022 11021 11021 11022 11021 11021 11020 11019 11018 11017 11019 11020 11019 11018 11017 11016 11015 11014 11013 11013 11014 11014 11013 11013 11012 11011 11011 11011 11010 11010 11009 11008 11007 11006 11006 11005 11004 11003 11002
11022 11022 11022 11024 11024 11024 11025 11025 11025 11025 11025 11024 11024 11024 11023 11024 11024 11024 11024 11023 11023 11023 11023 11023 11022 11022 11021 11021 11021 11021 11021 11020 11019 11019 11019 11019 11018 11018 11018 11019 11018 11018 11018 11016 11014 11014 11015 11016 11016 11015 11015 11014 11013 11011 11011 11011 11011 11011 11010 11010 11009 11009 11008 11008 11007 11007 11006 11006 11005 11004 11004 11003 11002 11001
11020 11018 11019 11021 11022 11021 11022 11022 11022 11022 11022 11022 11022 11022 11021 11021 11021 11021 11021 11021 11021 11021 11021 11021 11020 11020 11020 11019 11019 11018 11018 11017 11016 11015 11015 11015 11015 11014 11015 11015 11014 11015 11016 11015 11013 11011 11011 11011 11012 11011 11011 11011 11011 11011 11009 11008 11008 11007 11007 11007 11006 11005 11005 11004 11004 11004 11004 11003 11003 11002 11002 11001 11000 10999
11017 11015 11015 11016 11018 11018 11018 11018 11018 11019 11019 11019 11019 11019 11019 11019 11019 11019 11018 11018 11018 11018 11018 11018 11018 11018 11017 11017 11016 11016 11015 11014 11013 11012 11011 11011 11011 11010 11010 11011 11010 11011 11012 11013 11011 11010 11009 11008 11007 11007 11007 11007 11007 11008 11008 11007 11005 11004 11004 11004 11003 11002 11001 11001 11000 11000 11000 11000 11000 11000 10999 10999 10998 10997
11012 11011 11011 11011 11012 11013 11014 11013 11014 11014 11014 11015 11015 11015 11015 11016 11016 11016 11016 11015 11015 11014 11014 11014 11014 11015 11014 11014 11013 11013 11012 11011 11010 11009 11008 11007 11007 11006 11005 11006 11006 11007 11008 11008 11007 11007 11007 11005 11004 11004 11003 11003 11003 11003 11004 11004 11002 11001 11000 11000 11000 11000 10998 10997 10996 10996 10996 10996 10997 10996 10996 10996 10995 10994
11006 11006 11006 11006 11006 11008 11008 11009 11009 11010 11010 11010 11010 11010 11010 11010 11011 11012 11012 11012 11012 11011 11011 11010 11010 11010 11010 11010 11010 11009 11009 11008 11007 11006 11005 11004 11003 11002 11001 11001 11001 11002 11003 11003 11003 11003 11003 11001 11001 11000 10999 10999 10999 10999 10999 11000 10999 10998 10997 10996 10996 10996 10995 10994 10993 10992 10991 10991 10992 10992 10992 10992 10992 10991
10998 10999 10999 11000 11001 11002 11003 11003 11004 11004 11004 11004 11004 11004 11004 11004 11005 11005 11006 11007 11007 11007 11007 11006 11006 11006 11006 11005 11005 11005 11004 11004 11003 11002 11001 11000 10999 10998 10997 10997 10996 10996 10996 10996 10997 10997 10997 10997 10997 10996 10995 10995 10994 10994 10994 10995 10995 10995 10994 10993 10992 10992 10991 10991 10990 10988 10987 10986 10987 10987 10988 10988 10988 10988
10991 10991 10992 10994 10995 10996 10997 10998 10998 10998 10998 10999 10999 10999 10999 10999 10998 10999 10999 11000 11000 11001 11002 11002 11001 11001 11001 11000 11000 11000 11000 10999 10999 10998 10997 10996 10995 10994 10993 10993 10992 10991 10990 10990 10990 10991 10991 10991 10991 10991 10991 10991 10990 10989 10989 10989 10990 10991 10991 10991 10989 10988 10987 10986 10986 10985 10983 10982 10982 10982 10983 10983 10983 10983
10983 10984 10985 10986 10988 10989 10990 10991 10991 10992 10992 10992 10993 10993 10993 10993 10993 10993 10992 10992 10992 10993 10994 10995 10995 10995 10995 10994 10994 10994 10994 10994 10994 10993 10992 10991 10991 10990 10989 10988 10988 10987 10987 10986 10985 10984 10985 10985 10985 10985 10986 10986 10986 10985 10985 10984 10984 10985 10986 10987 10987 10985 10984 10983 10981 10980 10979 10978 10978 10978 10978 10979 10979 10979
10975 10975 10976 10978 10979 10981 10982 10983 10983 10984 10984 10985 10985 10986 10986 10986 10987 10987 10986 10986 10986 10985 10986 10986 10987 10988 10988 10988 10988 10988 10988 10988 10988 10988 10987 10986 10985 10985 10984 10983 10982 10982 10982 10981 10980 10980 10979 10979 10980 10979 10979 10980 10980 10980 10980 10979 10978 10978 10980 10982 10982 10981 10980 10979 10978 10976 10975 10974 10973 10973 10974 10974 10974 10974
10966 10967 10968 10969 10970 10972 10974 10975 10975 10975 10976 10976 10977 10978 10978 10979 10979 10980 10980 10979 10979 10978 10978 10978 10978 10979 10979 10980 10981 10981 10981 10981 10981 10981 10981 10980 10980 10979 10978 10977 10977 10977 10977 10976 10976 10975 10974 10974 10974 10974 10973 10973 10973 10974 10974 10973 10972 10972 10973 10975 10975 10976 10976 10975 10974 10973 10972 10970 10969 10968 10968 10968 10968 10968
10956 10957 10958 10959 10960 10961 10963 10965 10966 10966 10967 10967 10968 10969 10970 10970 10971 10972 10972 10972 10972 10971 10970 10970 10969 10970 10970 10971 10972 10972 10972 10973 10973 10973 10973 10973 10973 10972 10972 10971 10970 10970 10970 10970 10970 10969 10968 10968 10968 10968 10968 10968 10967 10967 10967 10966 10966 10966 10967 10966 10967 10968 10970 10970 10969 10969 10968 10967 10965 10964 10963 10962 10962 10962
10946 10947 10948 10949 10950 10951 10952 10953 10955 10956 10957 10957 10958 10960 10960 10961 10962 10962 10963 10964 10964 10963 10962 10962 10961 10961 10961 10962 10962 10962 10963 10963 10964 10964 10964 10964 10964 10964 10964 10963 10963 10962 10962 10962 10963 10963 10962 10962 10962 10962 10962 10962 10961 10960 10960 10959 10959 10959 10960 10959 10959 10960 10962 10964 10964 10964 10964 10963 10962 10961 10959 10957 10957 10957
10935 10937 10938 10939 10940 10941 10941 10942 10943 10944 10945 10946 10947 10949 10950 10951 10952 10953 10953 10954 10955 10954 10954 10954 10953 10952 10953 10953 10953 10953 10953 10953 10954 10954 10955 10955 10955 10955 10955 10955 10954 10954 10953 10953 10954 10954 10955 10954 10955 10955 10955 10955 10955 10954 10953 10953 10952 10951 10952 10952 10952 10952 10955 10957 10959 10959 10959 10958 10957 10956 10955 10953 10952 10951
10924 10925 10926 10928 10929 10930 10931 10932 10932 10933 10934 10935 10936 10937 10939 10940 10941 10942 10943 10944 10944 10944 10944 10944 10944 10943 10943 10944 10944 10944 10944 10944 10944 10944 10945 10945 10946 10946 10946 10946 10946 10945 10944 10944 10944 10944 10945 10946 10946 10947 10947 10947 10947 10946 10946 10946 10945 10944 10943 10943 10944 10945 10946 10949 10952 10954 10954 10953 10952 10951 10949 10948 10947 10946
10913 10914 10915 10916 10917 10918 10919 10920 10921 10921 10922 10923 10924 10925 10927 10928 10930 10931 10932 10933 10933 10934 10934 10934 10934 10934 10935 10934 10934 10934 10934 10934 10934 10934 10935 10935 10936 10936 10936 10936 10936 10936 10935 10935 10934 10934 10935 10936 10937 10938 10938 10939 10939 10938 10936 10938 10939 10937 10935 10935 10935 10936 10937 10940 10942 10945 10947 10947 10946 10944 10943 10942 10941 10941
10900 10901 10902 10903 10904 10905 10906 10907 10908 10909 10910 10911 10912 10913 10914 10916 10918 10919 10920 10921 10922 10922 10922 10922 10923 10924 10925 10925 10924 10924 10924 10924 10923 10923 10924 10924 10925 10926 10926 10926 10926 10926 10926 10925 10924 10924 10924 10925 10926 10928 10929 10930 10930 10929 10927 10928 10930 10930 10928 10927 10926 10927 10929 10930 10932 10934 10937 10939 10939 10938 10937 10935 10934 10934
10886 10887 10889 10890 10891 10892 10893 10894 10895 10896 10897 10898 10899 10900 10901 10903 10904 10906 10907 10909 10910 10910 10910 10910 10911 10913 10913 10913 10914 10914 10914 10913 10913 10913 10912 10913 10913 10914 10914 10915 10915 10915 10915 10915 10914 10913 10913 10914 10915 10917 10919 10920 10921 10920 10918 10918 10918 10918 10919 10920 10919 10918 10920 10922 10921 10922 10925 10929 10932 10932 10929 10926 10924 10924
10872 10873 10874 10875 10877 10878 10879 10880 10881 10882 10883 10884 10885 10886 10888 10889 10890 10892 10893 10895 10896 10897 10897 10897 10898 10899 10900 10901 10902 10903 10903 10902 10902 10901 10901 10901 10902 10902 10903 10903 10903 10903 10903 10904 10903 10901 10902 10903 10904 10905 10906 10908 10909 10910 10911 10911 10907 10904 10905 10909 10910 10910 10911 10912 10913 10913 10914 10917 10921 10922 10918 10915 10913 10913
10856 10857 10859 10860 10861 10863 10864 10865 10866 10867 10869 10870 10871 10872 10873 10874 10875 10877 10878 10879 10881 10882 10883 10884 10884 10885 10885 10887 10888 10890 10890 10890 10890 10889 10889 10889 10890 10890 10890 10891 10891 10891 10891 10892 10891 10890 10889 10890 10892 10893 10894 10895 10897 10898 10900 10903 10900 10893 10891 10894 10899 10900 10900 10901 10904 10905 10904 10905 10908 10909 10905 10903 10904 10904
10842 10843 10844 10845 10846 10847 10848 10850 10851 10852 10853 10854 10855 10856 10858 10858 10859 10861 10862 10863 10864 10866 10868 10869 10870 10870 10871 10871 10872 10874 10875 10876 10876 10876 10876 10877 10877 10877 10877 10878 10878 10878 10879 10880 10880 10878 10877 10876 10878 10880 10881 10883 10884 10885 10887 10890 10891 10886 10881 10881 10884 10886 10888 10889 10891 10893 10894 10894 10896 10897 10894 10892 10894 10895
10829 10829 10830 10831 10832 10832 10833 10834 10835 10836 10837 10838 10839 10840 10842 10843 10844 10845 10845 10847 10848 10849 10850 10852 10854 10855 10856 10856 10857 10858 10859 10860 10861 10861 10861 10862 10863 10863 10863 10864 10864 10865 10865 10866 10867 10866 10865 10863 10864 10866 10868 10869 10870 10872 10874 10876 10878 10876 10873 10870 10870 10872 10874 10875 10877 10880 10882 10882 10884 10885 10883 10880 10883 10885
10814 10815 10816 10817 10818 10818 10818 10819 10820 10820 10821 10822 10823 10824 10825 10826 10828 10829 10830 10830 10831 10832 10833 10834 10836 10838 10839 10840 10841 10841 10841 10842 10844 10845 10845 10846 10847 10848 10849 10850 10850 10850 10851 10852 10853 10853 10852 10851 10850 10851 10854 10855 10856 10858 10861 10862 10864 10864 10863 10860 10858 10859 10860 10862 10863 10865 10868 10869 10870 10872 10872 10870 10872 10874
10798 10800 10801 10801 10802 10803 10803 10804 10805 10805 10806 10806 10807 10808 10809 10810 10810 10812 10813 10813 10814 10816 10817 10817 10819 10821 10822 10823 10824 10824 10824 10825 10827 10828 10829 10829 10829 10831 10833 10834 10835 10835 10835 10836 10837 10838 10838 10837 10836 10836 10838 10840 10841 10843 10845 10847 10849 10850 10850 10849 10847 10846 10846 10848 10850 10851 10854 10855 10855 10856 10858 10859 10861 10862
10781 10782 10784 10784 10785 10786 10786 10787 10788 10789 10790 10790 10791 10792 10792 10792 10793 10793 10794 10795 10797 10798 10799 10800 10802 10803 10805 10805 10807 10808 10809 10809 10810 10811 10812 10812 10813 10814 10815 10816 10818 10819 10819 10819 10821 10822 10823 10822 10822 10822 10823 10825 10826 10827 10829 10831 10834 10835 10836 10836 10835 10833 10832 10833 10835 10836 10839 10841 10841 10840 10842 10845 10847 10849